KF0AIT Weather Reports


Display with metric or nautical units.
time (UTC)temp
F
wind
direction
speed
MPH
gust
MPH
rain 1hr
in
rain 24hr
in
rain mn
in
humidity
%
barometer
mb
20260905150003 71 0 0.0 0.0 0.00 0.00 0.00 71 1010.2
20260905145403 71 0 0.0 0.0 0.00 0.00 0.00 71 1010.2
20260905144503 71 157 0.0 1.0 0.00 0.00 0.00 71 1010.2
20260905143603 71 0 0.0 0.0 0.00 0.00 0.00 72 1010.2
20260905142703 71 0 0.0 0.0 0.00 0.00 0.00 73 1010.2
20260905141803 71 135 0.0 1.0 0.00 0.00 0.00 72 1010.2
20260905140903 70 0 0.0 0.0 0.00 0.00 0.00 73 1010.2
20260905140003 70 135 0.0 1.0 0.00 0.00 0.00 73 1011.3
20260905135403 70 135 1.0 1.0 0.00 0.00 0.00 74 1011.3
20260905134503 70 135 0.0 2.0 0.00 0.00 0.00 75 1011.3
20260905133603 70 135 1.0 4.0 0.00 0.00 0.00 75 1011.3
20260905132724 70 135 0.0 1.0 0.00 0.00 0.00 76 1012.3
20260905131803 70 0 0.0 0.0 0.00 0.00 0.00 76 1012.3
20260905130903 70 161 0.0 1.0 0.00 0.00 0.00 77 1012.3
20260905130003 69 149 0.0 2.0 0.00 0.00 0.00 78 1012.3
20260905125403 69 157 0.0 1.0 0.00 0.00 0.00 79 1012.3
20260905124524 70 0 0.0 0.0 0.00 0.00 0.00 79 1012.3
20260905123603 70 157 0.0 1.0 0.00 0.00 0.00 80 1012.3
20260905122724 70 0 0.0 0.0 0.00 0.00 0.00 81 1012.3
20260905121803 70 0 0.0 0.0 0.00 0.00 0.00 80 1012.3
20260905120924 70 0 0.0 0.0 0.00 0.00 0.00 81 1013.4
20260905120024 70 202 0.0 1.0 0.00 0.00 0.00 81 1013.4
20260905115403 83 217 0.0 2.0 0.00 0.00 0.00 52 1013.4
20260905114503 83 0 0.0 0.0 0.00 0.00 0.00 52 1013.4
20260905113603 83 0 0.0 0.0 0.00 0.00 0.00 52 1013.4
20260905112703 83 0 0.0 0.0 0.00 0.00 0.00 52 1013.4
20260905111803 83 292 0.0 1.0 0.00 0.00 0.00 52 1013.4
20260905110903 83 225 0.0 1.0 0.00 0.00 0.00 52 1012.3
20260905110003 83 225 0.0 1.0 0.00 0.00 0.00 52 1012.3
20260905105403 83 225 0.0 1.0 0.00 0.00 0.00 52 1012.3
20260905104503 83 217 0.0 3.0 0.00 0.00 0.00 52 1012.3
20260905103603 83 169 0.0 3.0 0.00 0.00 0.00 52 1012.3
20260905102703 83 174 2.0 3.0 0.00 0.00 0.00 52 1011.3
20260905101824 83 0 0.0 0.0 0.00 0.00 0.00 52 1011.3
20260905100903 83 0 0.0 0.0 0.00 0.00 0.00 52 1009.2
20260905100003 83 0 0.0 0.0 0.00 0.00 0.00 52 1009.2
20260905095403 83 0 0.0 0.0 0.00 0.00 0.00 52 1009.2
20260905094503 83 0 0.0 0.0 0.00 0.00 0.00 52 1010.2
20260905093603 83 0 0.0 0.0 0.00 0.00 0.00 52 1010.2
20260905092703 83 0 0.0 0.0 0.00 0.00 0.00 52 1010.2
20260905091803 83 0 0.0 0.0 0.00 0.00 0.00 52 1010.2
20260905090903 83 0 0.0 0.0 0.00 0.00 0.00 52 1011.3
20260905090003 83 0 0.0 0.0 0.00 0.00 0.00 52 1011.3
20260905085403 83 0 0.0 0.0 0.00 0.00 0.00 52 1011.3
20260905084503 83 0 0.0 0.0 0.00 0.00 0.00 52 1010.2
20260905083624 83 0 0.0 0.0 0.00 0.00 0.00 52 1010.2
20260905082703 83 0 0.0 0.0 0.00 0.00 0.00 52 1010.2
20260905081803 83 0 0.0 0.0 0.00 0.00 0.00 52 1010.2
20260905080903 83 112 0.0 1.0 0.00 0.00 0.00 52 1010.2
20260905080003 83 112 0.0 2.0 0.00 0.00 0.00 52 1010.2
20260905075403 83 112 0.0 2.0 0.00 0.00 0.00 52 1010.2
20260905074503 83 0 0.0 0.0 0.00 0.00 0.00 52 1010.2
20260905073603 83 0 0.0 0.0 0.00 0.00 0.00 52 1010.2
20260905072703 83 0 0.0 0.0 0.00 0.00 0.00 52 1010.2
20260905071803 83 90 0.0 2.0 0.00 0.00 0.00 52 1010.2
20260905070924 83 0 0.0 0.0 0.00 0.00 0.00 52 1010.2
20260905070003 83 0 0.0 0.0 0.00 0.00 0.00 52 1010.2
20260905065403 83 0 0.0 0.0 0.00 0.00 0.00 52 1010.2
20260905064503 83 0 0.0 0.0 0.00 0.00 0.00 52 1010.2
20260905063624 83 0 0.0 0.0 0.00 0.00 0.00 52 1010.2
20260905062703 83 0 0.0 0.0 0.00 0.00 0.00 52 1010.2
20260905061803 83 0 0.0 0.0 0.00 0.00 0.00 52 1010.2
20260905060903 83 0 0.0 0.0 0.00 0.00 0.00 52 1010.2
20260905060003 83 0 0.0 0.0 0.00 0.00 0.00 52 1010.2
20260905055403 83 0 0.0 0.0 0.00 0.00 0.00 52 1010.2
20260905054503 83 0 0.0 0.0 0.00 0.00 0.00 52 1010.2
20260905053603 83 0 0.0 0.0 0.00 0.00 0.00 52 1010.2
20260905052703 83 0 0.0 0.0 0.00 0.00 0.00 52 1010.2
20260905051803 83 0 0.0 0.0 0.00 0.00 0.00 52 1010.2
20260905050924 83 0 0.0 0.0 0.00 0.00 0.00 52 1010.2
20260905050003 83 0 0.0 0.0 0.00 0.00 0.00 52 1009.2
20260905045403 83 0 0.0 0.0 0.00 0.00 0.00 52 1009.2
20260905044503 83 0 0.0 0.0 0.00 0.00 0.00 52 1009.2
20260905043603 83 0 0.0 0.0 0.00 0.00 0.00 52 1009.2
20260905042703 83 0 0.0 0.0 0.00 0.00 0.00 52 1009.2
20260905041824 83 0 0.0 0.0 0.00 0.00 0.00 52 1009.2
20260905040903 83 0 0.0 0.0 0.00 0.00 0.00 52 1009.2
20260905040003 83 0 0.0 0.0 0.00 0.00 0.00 52 1009.2
20260905035403 83 0 0.0 0.0 0.00 0.00 0.00 52 1009.2
20260905034524 83 0 0.0 0.0 0.00 0.00 0.00 52 1009.2
20260905033603 83 0 0.0 0.0 0.00 0.00 0.00 52 1009.2
20260905032703 83 0 0.0 0.0 0.00 0.00 0.00 52 1009.2
20260905031824 83 0 0.0 0.0 0.00 0.00 0.00 52 1009.2
20260905030924 83 0 0.0 0.0 0.00 0.00 0.00 52 1009.2
20260905030003 83 90 0.0 2.0 0.00 0.00 0.00 52 1009.2
20260905025403 83 90 2.0 2.0 0.00 0.00 0.00 52 1009.2
20260905024503 83 0 0.0 0.0 0.00 0.00 0.00 52 1009.2
20260905023603 83 0 0.0 0.0 0.00 0.00 0.00 52 1009.2
20260905022703 83 90 0.0 3.0 0.00 0.00 0.00 52 1009.2
20260905021803 83 0 0.0 0.0 0.00 0.00 0.00 52 1009.2
20260905020924 83 0 0.0 0.0 0.00 0.00 0.00 52 1009.2
20260905020024 83 67 0.0 1.0 0.00 0.00 0.00 52 1008.1
20260905015424 83 67 0.0 1.0 0.00 0.00 0.00 52 1008.1
20260905014503 83 67 0.0 1.0 0.00 0.00 0.00 52 1008.1
20260905013624 83 0 0.0 0.0 0.00 0.00 0.00 52 1008.1
20260905012724 83 0 0.0 0.0 0.00 0.00 0.00 52 1008.1
20260905011824 83 0 0.0 0.0 0.00 0.00 0.00 52 1008.1
20260905010903 83 0 0.0 0.0 0.00 0.00 0.00 52 1008.1
20260905010004 83 67 0.0 1.0 0.00 0.00 0.00 52 1008.1
20260905005424 83 67 0.0 1.0 0.00 0.00 0.00 52 1008.1
20260905004503 83 0 0.0 0.0 0.00 0.00 0.00 52 1008.1
20260905003603 83 0 0.0 0.0 0.00 0.00 0.00 52 1008.1
20260905002703 83 67 0.0 1.0 0.00 0.00 0.00 52 1008.1
20260905001803 83 67 1.0 1.0 0.00 0.00 0.00 52 1008.1
20260905000903 83 67 1.0 1.0 0.00 0.00 0.00 52 1008.1
20260905000003 83 0 0.0 0.0 0.00 0.00 0.00 52 1008.1
20260904235403 83 0 0.0 0.0 0.00 0.00 0.00 52 1008.1
20260904234503 83 0 0.0 0.0 0.00 0.00 0.00 52 1008.1
20260904233624 83 0 0.0 0.0 0.00 0.00 0.00 52 1008.1
20260904232703 83 67 0.0 1.0 0.00 0.00 0.00 52 1008.1
20260904231803 83 0 0.0 0.0 0.00 0.00 0.00 52 1008.1
20260904230903 83 0 0.0 0.0 0.00 0.00 0.00 52 1008.1
20260904230003 83 73 0.0 2.0 0.00 0.00 0.00 52 1008.1
20260904225403 83 73 2.0 2.0 0.00 0.00 0.00 52 1008.1
20260904224503 83 67 0.0 2.0 0.00 0.00 0.00 52 1008.1
20260904223603 83 45 0.0 1.0 0.00 0.00 0.00 52 1008.1
20260904222703 83 90 0.0 2.0 0.00 0.00 0.00 52 1008.1
20260904221803 83 45 0.0 1.0 0.00 0.00 0.00 52 1008.1
20260904220903 83 0 0.0 0.0 0.00 0.00 0.00 52 1008.1
20260904220003 83 337 0.0 2.0 0.00 0.00 0.00 52 1008.1
20260904215403 83 337 0.0 1.0 0.00 0.00 0.00 52 1008.1
20260904214503 83 337 0.0 1.0 0.00 0.00 0.00 52 1008.1
20260904213603 83 0 0.0 0.0 0.00 0.00 0.00 52 1008.1
20260904212703 83 0 0.0 0.0 0.00 0.00 0.00 52 1008.1
20260904211803 83 0 0.0 0.0 0.00 0.00 0.00 52 1008.1
20260904210924 83 0 0.0 0.0 0.00 0.00 0.00 52 1008.1
20260904210003 83 337 0.0 1.0 0.00 0.00 0.00 52 1008.1
20260904205403 83 337 0.0 1.0 0.00 0.00 0.00 52 1008.1
20260904204503 83 0 0.0 0.0 0.00 0.00 0.00 52 1008.1
20260904203603 83 0 0.0 0.0 0.00 0.00 0.00 52 1008.1
20260904202703 83 337 0.0 2.0 0.00 0.00 0.00 52 1008.1
20260904201803 83 4 2.0 2.0 0.00 0.00 0.00 52 1008.1
20260904200903 83 67 0.0 1.0 0.00 0.00 0.00 52 1008.1
20260904200003 83 67 0.0 3.0 0.00 0.00 0.00 52 1008.1
20260904195403 83 0 0.0 0.0 0.00 0.00 0.00 52 1008.1
20260904194503 83 67 0.0 1.0 0.00 0.00 0.00 52 1008.1
20260904193603 83 0 0.0 0.0 0.00 0.00 0.00 52 1008.1
20260904192724 83 67 0.0 4.0 0.00 0.00 0.00 52 1009.2
20260904191824 83 0 0.0 0.0 0.00 0.00 0.00 52 1009.2
20260904190903 83 22 0.0 1.0 0.00 0.00 0.00 52 1009.2
20260904190024 83 45 0.0 4.0 0.00 0.00 0.00 52 1009.2
20260904185403 83 53 0.0 4.0 0.00 0.00 0.00 52 1009.2
20260904184503 83 67 0.0 1.0 0.00 0.00 0.00 52 1009.2
20260904183603 83 58 1.0 1.0 0.00 0.00 0.00 52 1009.2
20260904182703 83 0 0.0 0.0 0.00 0.00 0.00 52 1008.1
20260904181803 83 0 0.0 0.0 0.00 0.00 0.00 52 1008.1
20260904180924 83 0 0.0 0.0 0.00 0.00 0.00 52 1008.1
20260904180024 83 0 0.0 0.0 0.00 0.00 0.00 52 1008.1
20260904175403 83 0 0.0 0.0 0.00 0.00 0.00 52 1008.1
20260904174503 83 22 0.0 1.0 0.00 0.00 0.00 52 1008.1
20260904173603 83 22 0.0 1.0 0.00 0.00 0.00 52 1008.1
20260904172724 83 22 1.0 1.0 0.00 0.00 0.00 55 1008.1
20260904171803 83 0 0.0 0.0 0.00 0.00 0.00 55 1008.1
20260904170903 82 0 0.0 0.0 0.00 0.00 0.00 58 1008.1
20260904170003 81 0 0.0 0.0 0.00 0.00 0.00 58 1008.1
20260904165403 81 360 0.0 1.0 0.00 0.00 0.00 58 1008.1
20260904164503 80 360 0.0 3.0 0.00 0.00 0.00 62 1008.1
20260904163603 80 0 0.0 0.0 0.00 0.00 0.00 64 1008.1
20260904162724 79 0 0.0 0.0 0.00 0.00 0.00 65 1008.1
20260904161803 79 0 0.0 0.0 0.00 0.00 0.00 68 1008.1
20260904160903 78 0 0.0 0.0 0.00 0.00 0.00 70 1008.1
20260904160003 78 67 0.0 1.0 0.00 0.00 0.00 70 1008.1
20260904155403 77 67 0.0 1.0 0.00 0.00 0.00 72 1008.1
20260904154504 77 0 0.0 0.0 0.00 0.00 0.00 76 1008.1
20260904153603 76 45 0.0 1.0 0.00 0.00 0.00 80 1008.1
20260904152703 76 0 0.0 0.0 0.00 0.00 0.00 82 1008.1
20260904151803 75 0 0.0 0.0 0.00 0.00 0.00 83 1008.1
20260904150903 74 0 0.0 0.0 0.00 0.00 0.00 83 1008.1